SBI2507 UUDD-UNNT

Flight info

Callsign SBI2507
Flight time 3h 38m
Altitude 35000
Route OLMUN T629 IPSIL T830 LAMGU N604 OGSIN P983 TINRI T448 RUBOR A300 ML R814 SZ W1 GOLIM
Aircraft A321/M-SDE3FGHIRWY/LB1

Departure

Time 2026-05-01 11:47
Airport Domodedovo International Airport (UUDD)

Arrival

Time 2026-05-01 15:25
Airport Novosibirsk Tolmachevo Airport (UNNT)
Time Latitude Longitude Altitude Speed Heading
2026-05-01 11:31 55.41108 37.89424 580 ft 0 kts 54°
2026-05-01 11:33 55.41108 37.89423 580 ft 2 kts 54°
2026-05-01 11:33 55.41094 37.89387 580 ft 4 kts 60°
2026-05-01 11:33 55.41082 37.89345 580 ft 4 kts 71°
2026-05-01 11:33 55.41077 37.89300 580 ft 4 kts 97°
2026-05-01 11:34 55.41084 37.89268 581 ft 1 kts 145°
2026-05-01 11:34 55.41084 37.89267 581 ft 0 kts 146°
2026-05-01 11:38 55.41078 37.89274 581 ft 2 kts 145°
2026-05-01 11:38 55.41068 37.89286 580 ft 3 kts 145°
2026-05-01 11:38 55.41035 37.89326 578 ft 8 kts 145°
2026-05-01 11:38 55.40985 37.89387 576 ft 8 kts 146°
2026-05-01 11:39 55.40934 37.89448 579 ft 10 kts 146°
2026-05-01 11:39 55.40893 37.89498 576 ft 7 kts 146°
2026-05-01 11:39 55.40849 37.89511 573 ft 6 kts 196°
2026-05-01 11:39 55.40822 37.89466 578 ft 5 kts 232°
2026-05-01 11:40 55.40802 37.89416 573 ft 5 kts 236°
2026-05-01 11:40 55.40779 37.89356 570 ft 6 kts 236°
2026-05-01 11:40 55.40755 37.89297 570 ft 6 kts 230°
2026-05-01 11:40 55.40719 37.89269 572 ft 6 kts 182°
2026-05-01 11:41 55.40662 37.89317 568 ft 13 kts 146°
2026-05-01 11:41 55.40581 37.89415 570 ft 15 kts 147°
2026-05-01 11:41 55.40495 37.89518 571 ft 15 kts 145°
2026-05-01 11:41 55.40407 37.89623 565 ft 16 kts 146°
2026-05-01 11:42 55.40316 37.89734 564 ft 16 kts 146°
2026-05-01 11:42 55.40222 37.89846 561 ft 17 kts 146°
2026-05-01 11:42 55.40125 37.89963 560 ft 17 kts 146°
2026-05-01 11:42 55.40026 37.90082 556 ft 18 kts 145°
2026-05-01 11:43 55.39923 37.90206 558 ft 18 kts 145°
2026-05-01 11:43 55.39818 37.90332 549 ft 19 kts 145°
2026-05-01 11:43 55.39714 37.90456 546 ft 16 kts 145°
2026-05-01 11:44 55.39612 37.90537 544 ft 6 kts 195°
2026-05-01 11:44 55.39587 37.90496 544 ft 3 kts 234°
2026-05-01 11:44 55.39574 37.90464 544 ft 5 kts 234°
2026-05-01 11:44 55.39548 37.90400 543 ft 8 kts 235°
2026-05-01 11:45 55.39532 37.90324 542 ft 6 kts 284°
2026-05-01 11:45 55.39554 37.90288 543 ft 0 kts 323°
2026-05-01 11:46 55.39611 37.90217 544 ft 37 kts 325°
2026-05-01 11:46 55.40031 37.89709 560 ft 106 kts 325°
2026-05-01 11:46 55.40800 37.88787 576 ft 158 kts 326°
2026-05-01 11:47 55.41812 37.87570 775 ft 186 kts 324°
2026-05-01 11:47 55.42821 37.86200 1514 ft 185 kts 315°
2026-05-01 11:47 55.43704 37.84509 2017 ft 194 kts 310°
2026-05-01 11:47 55.44592 37.82623 2485 ft 201 kts 309°
2026-05-01 11:48 55.45492 37.80694 3026 ft 209 kts 309°
2026-05-01 11:48 55.46421 37.78749 3805 ft 205 kts 310°
2026-05-01 11:48 55.47481 37.76920 4009 ft 225 kts 325°
2026-05-01 11:48 55.48903 37.75680 3999 ft 231 kts 339°
2026-05-01 11:49 55.50452 37.74861 3986 ft 233 kts 344°
2026-05-01 11:49 55.52038 37.74268 3997 ft 234 kts 354°
2026-05-01 11:49 55.53651 37.74572 4100 ft 237 kts 19°
2026-05-01 11:49 55.55120 37.76125 4529 ft 257 kts 34°
2026-05-01 11:50 55.56599 37.77950 5241 ft 263 kts 32°
2026-05-01 11:50 55.58151 37.79707 5848 ft 267 kts 30°
2026-05-01 11:50 55.59722 37.81383 5979 ft 267 kts 29°
2026-05-01 11:50 55.61321 37.83038 6004 ft 265 kts 28°
2026-05-01 11:51 55.62876 37.84793 6003 ft 267 kts 40°
2026-05-01 11:51 55.63995 37.87396 6007 ft 269 kts 65°
2026-05-01 11:51 55.64383 37.90658 6366 ft 276 kts 91°
2026-05-01 11:51 55.64081 37.94017 7195 ft 278 kts 101°
2026-05-01 11:52 55.63667 37.97361 7986 ft 279 kts 101°
2026-05-01 11:52 55.63239 38.00736 8756 ft 282 kts 101°
2026-05-01 11:52 55.62800 38.04138 9507 ft 285 kts 101°
2026-05-01 11:52 55.62354 38.07578 9943 ft 289 kts 101°
2026-05-01 11:53 55.61907 38.11040 10010 ft 288 kts 101°
2026-05-01 11:53 55.61464 38.14493 10009 ft 288 kts 101°
2026-05-01 11:53 55.61021 38.17973 10373 ft 293 kts 101°
2026-05-01 11:53 55.60564 38.21593 10725 ft 308 kts 101°
2026-05-01 11:54 55.60092 38.25319 11322 ft 312 kts 100°
2026-05-01 11:54 55.59612 38.29080 11999 ft 315 kts 100°
2026-05-01 11:54 55.59129 38.32820 12670 ft 317 kts 100°
2026-05-01 11:54 55.58633 38.36678 13138 ft 320 kts 99°
2026-05-01 11:55 55.58193 38.40534 13218 ft 317 kts 93°
2026-05-01 11:55 55.58189 38.44396 13218 ft 312 kts 80°
2026-05-01 11:55 55.58688 38.48115 13460 ft 312 kts 66°
2026-05-01 11:55 55.59633 38.51550 14164 ft 311 kts 57°
2026-05-01 11:56 55.60730 38.54849 14806 ft 312 kts 57°
2026-05-01 11:56 55.61809 38.58116 15412 ft 313 kts 57°
2026-05-01 11:56 55.62905 38.61444 16010 ft 314 kts 57°
2026-05-01 11:56 55.64012 38.64796 16558 ft 315 kts 57°
2026-05-01 11:57 55.65122 38.68154 17100 ft 317 kts 57°
2026-05-01 11:57 55.66228 38.71508 17207 ft 315 kts 57°
2026-05-01 11:57 55.67333 38.74858 17219 ft 314 kts 57°
2026-05-01 11:57 55.68433 38.78199 17217 ft 314 kts 57°
2026-05-01 11:58 55.69533 38.81551 17218 ft 314 kts 57°
2026-05-01 11:58 55.70629 38.84905 17216 ft 314 kts 57°
2026-05-01 11:58 55.72824 38.91594 17215 ft 314 kts 56°
2026-05-01 11:59 55.74123 38.94683 17282 ft 313 kts 45°
2026-05-01 11:59 55.75637 38.97478 17888 ft 314 kts 45°
2026-05-01 11:59 55.77138 39.00288 18546 ft 315 kts 45°
2026-05-01 12:00 55.80144 39.05985 19637 ft 316 kts 45°
2026-05-01 12:00 55.81649 39.08846 20170 ft 317 kts 45°
2026-05-01 12:00 55.84669 39.14581 21129 ft 319 kts 45°
2026-05-01 12:01 55.86199 39.17483 21262 ft 327 kts 45°
2026-05-01 12:01 55.87780 39.20489 21399 ft 337 kts 45°
2026-05-01 12:01 55.89383 39.23547 21525 ft 347 kts 45°
2026-05-01 12:01 55.91045 39.26730 21678 ft 355 kts 45°
2026-05-01 12:02 55.92748 39.29993 21803 ft 364 kts 45°
2026-05-01 12:02 55.94549 39.33248 21942 ft 373 kts 43°
2026-05-01 12:02 55.96453 39.36466 22101 ft 380 kts 42°
2026-05-01 12:02 55.98416 39.39671 22433 ft 384 kts 41°
2026-05-01 12:03 56.00400 39.42889 22837 ft 385 kts 41°
2026-05-01 12:03 56.02384 39.46127 23245 ft 386 kts 42°
2026-05-01 12:03 56.04359 39.49388 23675 ft 387 kts 42°
2026-05-01 12:03 56.06332 39.52674 24021 ft 389 kts 43°
2026-05-01 12:04 56.08151 39.56278 24315 ft 392 kts 51°
2026-05-01 12:04 56.09671 39.60363 24590 ft 395 kts 54°
2026-05-01 12:04 56.11154 39.64519 24892 ft 397 kts 54°
2026-05-01 12:04 56.12644 39.68684 25173 ft 398 kts 54°
2026-05-01 12:05 56.14145 39.72880 25434 ft 400 kts 54°
2026-05-01 12:05 56.17148 39.81281 25920 ft 404 kts 54°
2026-05-01 12:05 56.18667 39.85537 26153 ft 406 kts 54°
2026-05-01 12:06 56.20192 39.89819 26368 ft 408 kts 54°
2026-05-01 12:06 56.21721 39.94119 26576 ft 409 kts 54°
2026-05-01 12:06 56.23256 39.98439 26768 ft 411 kts 54°
2026-05-01 12:06 56.24792 40.02763 27026 ft 410 kts 54°
2026-05-01 12:07 56.26324 40.07100 27290 ft 410 kts 54°
2026-05-01 12:07 56.27849 40.11434 27548 ft 410 kts 54°
2026-05-01 12:07 56.29375 40.15777 27794 ft 410 kts 54°
2026-05-01 12:07 56.30898 40.20119 28041 ft 410 kts 55°
2026-05-01 12:08 56.32421 40.24465 28293 ft 410 kts 54°
2026-05-01 12:08 56.33946 40.28813 28528 ft 410 kts 54°
2026-05-01 12:08 56.35470 40.33161 28792 ft 410 kts 54°
2026-05-01 12:08 56.36991 40.37516 29038 ft 410 kts 55°
2026-05-01 12:09 56.38507 40.41876 29289 ft 410 kts 55°
2026-05-01 12:09 56.40022 40.46245 29526 ft 410 kts 55°
2026-05-01 12:09 56.41534 40.50614 29773 ft 410 kts 55°
2026-05-01 12:09 56.43041 40.54979 30003 ft 410 kts 55°
2026-05-01 12:10 56.44529 40.59291 30229 ft 410 kts 55°
2026-05-01 12:10 56.46836 40.68790 30558 ft 419 kts 70°
2026-05-01 12:10 56.47598 40.73887 30707 ft 420 kts 70°
2026-05-01 12:11 56.49138 40.84111 31012 ft 422 kts 70°
2026-05-01 12:11 56.49913 40.89237 31171 ft 423 kts 70°
2026-05-01 12:11 56.50688 40.94385 31332 ft 424 kts 71°
2026-05-01 12:12 56.51455 40.99533 31478 ft 425 kts 71°
2026-05-01 12:12 56.52222 41.04706 31640 ft 425 kts 71°
2026-05-01 12:12 56.52984 41.09891 31794 ft 426 kts 71°
2026-05-01 12:12 56.53747 41.15090 31949 ft 427 kts 71°
2026-05-01 12:13 56.54516 41.20291 32104 ft 428 kts 71°
2026-05-01 12:13 56.55286 41.25500 32250 ft 428 kts 71°
2026-05-01 12:13 56.56053 41.30719 32419 ft 429 kts 71°
2026-05-01 12:13 56.56818 41.35950 32573 ft 430 kts 72°
2026-05-01 12:14 56.57570 41.41138 32737 ft 431 kts 72°
2026-05-01 12:14 56.58327 41.46392 32876 ft 432 kts 72°
2026-05-01 12:14 56.59086 41.51664 33026 ft 432 kts 72°
2026-05-01 12:14 56.59848 41.56948 33168 ft 433 kts 72°
2026-05-01 12:15 56.60611 41.62244 33309 ft 434 kts 72°
2026-05-01 12:15 56.61369 41.67551 33456 ft 435 kts 72°
2026-05-01 12:15 56.62123 41.72867 33602 ft 436 kts 72°
2026-05-01 12:15 56.62877 41.78198 33752 ft 436 kts 73°
2026-05-01 12:16 56.63632 41.83538 33900 ft 437 kts 73°
2026-05-01 12:16 56.64131 41.87080 33991 ft 437 kts 73°
2026-05-01 12:16 56.64884 41.92439 34128 ft 438 kts 73°
2026-05-01 12:16 56.65636 41.97807 34251 ft 439 kts 73°
2026-05-01 12:17 56.66389 42.03194 34372 ft 439 kts 73°
2026-05-01 12:17 56.67139 42.08575 34483 ft 440 kts 73°
2026-05-01 12:17 56.67887 42.13978 34594 ft 440 kts 73°
2026-05-01 12:17 56.68633 42.19386 34707 ft 441 kts 73°
2026-05-01 12:18 56.69379 42.24804 34822 ft 442 kts 73°
2026-05-01 12:18 56.70123 42.30226 34943 ft 442 kts 73°
2026-05-01 12:18 56.70864 42.35655 35071 ft 442 kts 73°
2026-05-01 12:18 56.71602 42.41092 35164 ft 443 kts 74°
2026-05-01 12:19 56.73076 42.52013 35176 ft 445 kts 74°
2026-05-01 12:19 56.74631 42.62930 35176 ft 445 kts 72°
2026-05-01 12:20 56.76425 42.73618 35187 ft 444 kts 70°
2026-05-01 12:20 56.78264 42.84375 35178 ft 445 kts 71°
2026-05-01 12:21 56.80039 42.95204 35181 ft 446 kts 72°
2026-05-01 12:21 56.81770 43.06077 35184 ft 446 kts 72°
2026-05-01 12:22 56.83497 43.16980 35198 ft 447 kts 72°
2026-05-01 12:22 56.85228 43.27884 35182 ft 447 kts 72°
2026-05-01 12:23 56.86949 43.38808 35180 ft 447 kts 72°
2026-05-01 12:23 56.88657 43.49758 35183 ft 448 kts 72°
2026-05-01 12:24 56.90351 43.60648 35181 ft 449 kts 72°
2026-05-01 12:24 56.92051 43.71645 35183 ft 449 kts 72°
2026-05-01 12:25 56.94591 43.88183 35181 ft 450 kts 72°
2026-05-01 12:26 56.96264 43.99227 35177 ft 450 kts 73°
2026-05-01 12:26 56.98754 44.15847 35177 ft 450 kts 73°
2026-05-01 12:27 57.01240 44.32473 35171 ft 451 kts 73°
2026-05-01 12:28 57.03699 44.49159 35163 ft 452 kts 73°
2026-05-01 12:29 57.06127 44.65826 35162 ft 452 kts 73°
2026-05-01 12:29 57.08549 44.82617 35163 ft 454 kts 74°
2026-05-01 12:30 57.10968 44.99455 35162 ft 454 kts 74°
2026-05-01 12:31 57.12570 45.10697 35157 ft 454 kts 74°
2026-05-01 12:31 57.14150 45.21973 35157 ft 455 kts 74°
2026-05-01 12:32 57.15715 45.33261 35154 ft 455 kts 74°
2026-05-01 12:32 57.18063 45.50229 35151 ft 456 kts 75°
2026-05-01 12:33 57.19620 45.61577 35153 ft 457 kts 75°
2026-05-01 12:33 57.21163 45.72947 35153 ft 457 kts 75°
2026-05-01 12:34 57.22703 45.84345 35156 ft 457 kts 75°
2026-05-01 12:34 57.24219 45.95667 35152 ft 458 kts 75°
2026-05-01 12:35 57.25736 46.07092 35156 ft 458 kts 75°
2026-05-01 12:35 57.27249 46.18529 35153 ft 458 kts 75°
2026-05-01 12:36 57.28750 46.29981 35153 ft 459 kts 75°
2026-05-01 12:36 57.30246 46.41453 35150 ft 459 kts 75°
2026-05-01 12:37 57.31731 46.52943 35151 ft 459 kts 76°
2026-05-01 12:37 57.33202 46.64455 35146 ft 459 kts 76°
2026-05-01 12:38 57.34703 46.75947 35138 ft 459 kts 71°
2026-05-01 12:38 57.37158 46.86812 35136 ft 458 kts 65°
2026-05-01 12:39 57.39783 46.97578 35135 ft 459 kts 65°
2026-05-01 12:39 57.42405 47.08372 35132 ft 459 kts 65°
2026-05-01 12:40 57.45014 47.19183 35132 ft 459 kts 65°
2026-05-01 12:40 57.47597 47.29958 35128 ft 460 kts 65°
2026-05-01 12:41 57.50188 47.40837 35131 ft 460 kts 65°
2026-05-01 12:41 57.52781 47.51728 35131 ft 460 kts 65°
2026-05-01 12:42 57.55370 47.62637 35132 ft 461 kts 65°
2026-05-01 12:42 57.57933 47.73493 35131 ft 461 kts 65°
2026-05-01 12:43 57.60501 47.84446 35134 ft 461 kts 66°
2026-05-01 12:43 57.63055 47.95420 35130 ft 461 kts 66°
2026-05-01 12:44 57.65604 48.06401 35129 ft 461 kts 66°
2026-05-01 12:45 57.70682 48.28435 35130 ft 462 kts 66°
2026-05-01 12:45 57.73210 48.39495 35129 ft 463 kts 66°
2026-05-01 12:46 57.75191 48.50854 35127 ft 463 kts 81°
2026-05-01 12:46 57.76055 48.62819 35125 ft 464 kts 82°
2026-05-01 12:47 57.76911 48.74796 35121 ft 464 kts 82°
2026-05-01 12:47 57.77764 48.86798 35116 ft 465 kts 82°
2026-05-01 12:48 57.78598 48.98802 35119 ft 465 kts 82°
2026-05-01 12:48 57.79417 49.10833 35119 ft 465 kts 82°
2026-05-01 12:49 57.80225 49.22870 35121 ft 465 kts 83°
2026-05-01 12:49 57.81017 49.34921 35117 ft 465 kts 83°
2026-05-01 12:50 57.81794 49.46890 35116 ft 465 kts 83°
2026-05-01 12:50 57.82568 49.58949 35113 ft 465 kts 83°
2026-05-01 12:51 57.83335 49.71005 35108 ft 465 kts 83°
2026-05-01 12:52 57.84458 49.89106 35112 ft 466 kts 83°
2026-05-01 12:52 57.85550 50.07219 35109 ft 466 kts 83°
2026-05-01 12:53 57.86637 50.25379 35109 ft 467 kts 84°
2026-05-01 12:54 57.87348 50.37512 35109 ft 467 kts 84°
2026-05-01 12:54 57.88395 50.55660 35109 ft 468 kts 84°
2026-05-01 12:55 57.89421 50.73926 35104 ft 468 kts 84°
2026-05-01 12:56 57.90086 50.86116 35099 ft 469 kts 84°
2026-05-01 12:56 57.90736 50.98305 35094 ft 469 kts 84°
2026-05-01 12:57 57.91370 51.10432 35095 ft 469 kts 85°
2026-05-01 12:57 57.92313 51.28796 35099 ft 470 kts 85°
2026-05-01 12:58 57.92923 51.41050 35102 ft 471 kts 85°
2026-05-01 12:59 57.93840 51.59442 35096 ft 470 kts 85°
2026-05-01 12:59 57.94739 51.77826 35089 ft 470 kts 85°
2026-05-01 13:00 57.95594 51.96206 35086 ft 470 kts 85°
2026-05-01 13:01 57.96424 52.14613 35076 ft 470 kts 86°
2026-05-01 13:02 57.97228 52.32938 35066 ft 470 kts 86°
2026-05-01 13:07 58.02384 53.69021 35061 ft 475 kts 88°
2026-05-01 13:08 58.02780 53.81474 35062 ft 475 kts 89°
2026-05-01 13:08 58.03160 53.93934 35061 ft 475 kts 89°
2026-05-01 13:09 58.03530 54.06377 35056 ft 475 kts 89°
2026-05-01 13:09 58.03902 54.18818 35057 ft 475 kts 89°
2026-05-01 13:10 58.04270 54.31247 35052 ft 474 kts 89°
2026-05-01 13:10 58.04619 54.43667 35050 ft 473 kts 89°
2026-05-01 13:11 58.04947 54.56070 35045 ft 473 kts 90°
2026-05-01 13:11 58.05209 54.66385 35043 ft 473 kts 90°
2026-05-01 13:12 58.05410 54.78774 35038 ft 470 kts 96°
2026-05-01 13:12 58.04621 54.90989 35037 ft 469 kts 100°
2026-05-01 13:13 58.03761 55.03185 35041 ft 469 kts 101°
2026-05-01 13:13 58.02886 55.15389 35028 ft 469 kts 101°
2026-05-01 13:14 58.01991 55.27575 35030 ft 469 kts 101°
2026-05-01 13:14 58.01096 55.39739 35023 ft 468 kts 101°
2026-05-01 13:15 58.00207 55.51822 35010 ft 468 kts 101°
2026-05-01 13:15 57.99301 55.63981 35006 ft 468 kts 101°
2026-05-01 13:16 57.98379 55.76126 35007 ft 468 kts 102°
2026-05-01 13:16 57.97444 55.88265 35010 ft 468 kts 102°
2026-05-01 13:17 57.95564 56.12537 35014 ft 468 kts 102°
2026-05-01 13:18 57.94118 56.30707 35007 ft 468 kts 102°
2026-05-01 13:18 57.93143 56.42806 35006 ft 468 kts 102°
2026-05-01 13:19 57.92155 56.54891 35002 ft 467 kts 103°
2026-05-01 13:20 57.90641 56.73017 34989 ft 467 kts 103°
2026-05-01 13:20 57.89630 56.85008 34991 ft 467 kts 103°
2026-05-01 13:21 57.88086 57.03091 34989 ft 467 kts 103°
2026-05-01 13:21 57.87045 57.15130 34989 ft 467 kts 103°
2026-05-01 13:22 57.85987 57.27164 34989 ft 467 kts 103°
2026-05-01 13:22 57.84916 57.39186 34989 ft 466 kts 104°
2026-05-01 13:23 57.83845 57.51190 34989 ft 466 kts 104°
2026-05-01 13:23 57.82766 57.63172 34986 ft 466 kts 104°
2026-05-01 13:24 57.81666 57.75156 34983 ft 465 kts 104°
2026-05-01 13:25 57.79991 57.93062 34985 ft 464 kts 104°
2026-05-01 13:25 57.78866 58.04898 34984 ft 464 kts 104°
2026-05-01 13:26 57.77741 58.16805 34978 ft 464 kts 104°
2026-05-01 13:26 57.76611 58.28683 34972 ft 463 kts 105°
2026-05-01 13:27 57.75469 58.40566 34973 ft 463 kts 105°
2026-05-01 13:27 57.73742 58.58341 34964 ft 463 kts 105°
2026-05-01 13:28 57.71994 58.76102 34960 ft 462 kts 105°
2026-05-01 13:29 57.69615 58.99707 34954 ft 462 kts 105°
2026-05-01 13:31 57.65986 59.35018 34935 ft 460 kts 106°
2026-05-01 13:32 57.62898 59.64313 34926 ft 460 kts 106°
2026-05-01 13:33 57.59751 59.93421 34918 ft 459 kts 107°
2026-05-01 13:34 57.57185 60.16684 34907 ft 458 kts 107°
2026-05-01 13:35 57.55234 60.34094 34904 ft 457 kts 107°
2026-05-01 13:36 57.53256 60.51454 34902 ft 457 kts 107°
2026-05-01 13:36 57.51965 60.68999 34899 ft 463 kts 98°
2026-05-01 13:37 57.51632 60.80947 34892 ft 462 kts 98°
2026-05-01 13:37 57.51270 60.92884 34890 ft 462 kts 98°
2026-05-01 13:38 57.50709 61.10760 34898 ft 462 kts 99°
2026-05-01 13:39 57.50318 61.22668 34895 ft 461 kts 99°
2026-05-01 13:39 57.49932 61.34566 34895 ft 461 kts 99°
2026-05-01 13:40 57.49533 61.46450 34893 ft 460 kts 99°
2026-05-01 13:40 57.49114 61.58311 34890 ft 460 kts 99°
2026-05-01 13:41 57.48686 61.70168 34889 ft 459 kts 99°
2026-05-01 13:41 57.48257 61.82002 34888 ft 459 kts 99°
2026-05-01 13:42 57.47812 61.93826 34887 ft 458 kts 100°
2026-05-01 13:42 57.47354 62.05636 34887 ft 458 kts 100°
2026-05-01 13:43 57.46891 62.17347 34882 ft 458 kts 100°
2026-05-01 13:43 57.46420 62.29135 34877 ft 457 kts 100°
2026-05-01 13:44 57.45945 62.40907 34875 ft 457 kts 100°
2026-05-01 13:44 57.45464 62.52683 34870 ft 457 kts 100°
2026-05-01 13:45 57.44974 62.64433 34862 ft 456 kts 101°
2026-05-01 13:45 57.44468 62.76185 34857 ft 456 kts 101°
2026-05-01 13:46 57.43947 62.87912 34850 ft 456 kts 101°
2026-05-01 13:46 57.43420 62.99646 34848 ft 456 kts 101°
2026-05-01 13:47 57.42889 63.11277 34836 ft 456 kts 101°
2026-05-01 13:47 57.42337 63.22997 34833 ft 455 kts 101°
2026-05-01 13:48 57.41772 63.34699 34827 ft 456 kts 101°
2026-05-01 13:48 57.41202 63.46410 34828 ft 455 kts 102°
2026-05-01 13:49 57.40622 63.58108 34815 ft 455 kts 102°
2026-05-01 13:49 57.40023 63.69799 34815 ft 455 kts 102°
2026-05-01 13:50 57.38973 63.81249 34800 ft 446 kts 111°
2026-05-01 13:50 57.37406 63.92299 34789 ft 446 kts 111°
2026-05-01 13:51 57.35829 64.03432 34782 ft 447 kts 111°
2026-05-01 13:51 57.34246 64.14553 34776 ft 447 kts 111°
2026-05-01 13:52 57.32648 64.25689 34772 ft 447 kts 111°
2026-05-01 13:52 57.31038 64.36805 34779 ft 447 kts 111°
2026-05-01 13:53 57.29410 64.47917 34767 ft 447 kts 112°
2026-05-01 13:53 57.26965 64.64551 34757 ft 447 kts 112°
2026-05-01 13:54 57.25330 64.75625 34735 ft 447 kts 112°
2026-05-01 13:54 57.23675 64.86693 34718 ft 447 kts 112°
2026-05-01 13:55 57.22016 64.97729 34707 ft 446 kts 112°
2026-05-01 13:55 57.20361 65.08689 34689 ft 446 kts 112°
2026-05-01 13:56 57.18681 65.19708 34683 ft 446 kts 112°
2026-05-01 13:56 57.17014 65.30746 34684 ft 450 kts 109°
2026-05-01 13:57 57.16311 65.40336 34684 ft 456 kts 103°
2026-05-01 13:57 57.15460 65.53906 34681 ft 456 kts 104°
2026-05-01 13:58 57.14709 65.65510 34687 ft 457 kts 104°
2026-05-01 13:58 57.13942 65.77111 34686 ft 457 kts 104°
2026-05-01 13:59 57.13168 65.88729 34685 ft 457 kts 104°
2026-05-01 13:59 57.12388 66.00329 34679 ft 457 kts 104°
2026-05-01 14:00 57.11601 66.11866 34688 ft 457 kts 104°
2026-05-01 14:00 57.10799 66.23475 34684 ft 458 kts 104°
2026-05-01 14:01 57.09983 66.35082 34685 ft 458 kts 104°
2026-05-01 14:01 57.09154 66.46702 34685 ft 458 kts 104°
2026-05-01 14:02 57.08320 66.58311 34682 ft 458 kts 104°
2026-05-01 14:02 57.07475 66.69931 34677 ft 459 kts 104°
2026-05-01 14:03 57.06621 66.81551 34679 ft 459 kts 104°
2026-05-01 14:03 57.05741 66.93168 34681 ft 458 kts 105°
2026-05-01 14:04 57.04950 67.02771 34674 ft 458 kts 106°
2026-05-01 14:04 57.03936 67.14328 34675 ft 458 kts 106°
2026-05-01 14:05 57.02750 67.27757 34682 ft 459 kts 106°
2026-05-01 14:05 57.01902 67.37438 34678 ft 459 kts 106°
2026-05-01 14:06 57.00889 67.49004 34678 ft 459 kts 106°
2026-05-01 14:06 56.99866 67.60474 34680 ft 459 kts 106°
2026-05-01 14:07 56.98818 67.72003 34681 ft 458 kts 107°
2026-05-01 14:08 56.97219 67.89273 34676 ft 458 kts 107°
2026-05-01 14:08 56.96147 68.00787 34677 ft 458 kts 107°
2026-05-01 14:09 56.95071 68.12275 34672 ft 457 kts 107°
2026-05-01 14:09 56.93987 68.23747 34671 ft 457 kts 107°
2026-05-01 14:10 56.92891 68.35210 34667 ft 457 kts 107°
2026-05-01 14:10 56.91790 68.46587 34678 ft 457 kts 107°
2026-05-01 14:11 56.90660 68.58088 34673 ft 456 kts 108°
2026-05-01 14:11 56.88960 68.75136 34655 ft 456 kts 108°
2026-05-01 14:12 56.87823 68.86545 34657 ft 456 kts 108°
2026-05-01 14:12 56.86672 68.97929 34660 ft 455 kts 108°
2026-05-01 14:13 56.85516 69.09285 34653 ft 454 kts 108°
2026-05-01 14:13 56.84345 69.20614 34657 ft 454 kts 108°
2026-05-01 14:14 56.83167 69.31946 34663 ft 453 kts 108°
2026-05-01 14:14 56.81982 69.43245 34665 ft 452 kts 109°
2026-05-01 14:15 56.80775 69.54504 34659 ft 452 kts 109°
2026-05-01 14:15 56.79574 69.65670 34661 ft 451 kts 109°
2026-05-01 14:16 56.78376 69.76875 34657 ft 450 kts 109°
2026-05-01 14:16 56.77152 69.88099 34649 ft 450 kts 109°
2026-05-01 14:17 56.75917 69.99259 34648 ft 449 kts 109°
2026-05-01 14:17 56.74676 70.10444 34646 ft 449 kts 109°
2026-05-01 14:18 56.73421 70.21591 34652 ft 449 kts 109°
2026-05-01 14:18 56.72354 70.30830 34649 ft 449 kts 110°
2026-05-01 14:19 56.70765 70.43791 34641 ft 448 kts 111°
2026-05-01 14:19 56.69384 70.54851 34640 ft 448 kts 111°
2026-05-01 14:20 56.67325 70.71457 34639 ft 449 kts 110°
2026-05-01 14:21 56.65954 70.82523 34641 ft 449 kts 111°
2026-05-01 14:21 56.64566 70.93508 34635 ft 449 kts 111°
2026-05-01 14:22 56.62462 71.10078 34641 ft 449 kts 111°
2026-05-01 14:22 56.61034 71.21115 34646 ft 449 kts 111°
2026-05-01 14:23 56.59593 71.32143 34648 ft 449 kts 111°
2026-05-01 14:23 56.58145 71.43174 34645 ft 449 kts 111°
2026-05-01 14:24 56.56694 71.54180 34646 ft 449 kts 111°
2026-05-01 14:24 56.55241 71.65231 34643 ft 450 kts 111°
2026-05-01 14:25 56.53780 71.76251 34640 ft 450 kts 111°
2026-05-01 14:25 56.52291 71.87248 34639 ft 450 kts 111°
2026-05-01 14:26 56.50039 72.03739 34638 ft 450 kts 111°
2026-05-01 14:27 56.48551 72.14664 34630 ft 450 kts 111°
2026-05-01 14:27 56.47039 72.25669 34625 ft 451 kts 111°
2026-05-01 14:28 56.44746 72.42165 34631 ft 451 kts 112°
2026-05-01 14:28 56.43194 72.53133 34619 ft 451 kts 111°
2026-05-01 14:29 56.41639 72.64131 34630 ft 451 kts 111°
2026-05-01 14:30 56.38499 72.86098 34624 ft 452 kts 111°
2026-05-01 14:31 56.36117 73.02495 34626 ft 453 kts 111°
2026-05-01 14:31 56.34523 73.13473 34627 ft 453 kts 111°
2026-05-01 14:32 56.32915 73.24433 34631 ft 453 kts 111°
2026-05-01 14:32 56.31290 73.35426 34632 ft 453 kts 112°
2026-05-01 14:33 56.29644 73.46381 34632 ft 453 kts 111°
2026-05-01 14:33 56.28004 73.57341 34630 ft 454 kts 111°
2026-05-01 14:34 56.26347 73.68293 34636 ft 454 kts 112°
2026-05-01 14:34 56.24680 73.79236 34636 ft 454 kts 112°
2026-05-01 14:35 56.23004 73.90183 34638 ft 454 kts 112°
2026-05-01 14:35 56.21229 74.01049 34643 ft 453 kts 114°
2026-05-01 14:36 56.19292 74.11814 34649 ft 453 kts 115°
2026-05-01 14:36 56.17311 74.22562 34650 ft 453 kts 114°
2026-05-01 14:37 56.15356 74.33327 34657 ft 454 kts 114°
2026-05-01 14:37 56.13414 74.44099 34672 ft 455 kts 114°
2026-05-01 14:38 56.11439 74.54887 34680 ft 455 kts 114°
2026-05-01 14:38 56.09465 74.65658 34684 ft 455 kts 114°
2026-05-01 14:39 56.07488 74.76349 34684 ft 455 kts 114°
2026-05-01 14:39 56.05504 74.87108 34691 ft 455 kts 114°
2026-05-01 14:40 56.03499 74.97847 34688 ft 455 kts 114°
2026-05-01 14:40 56.01484 75.08587 34688 ft 455 kts 114°
2026-05-01 14:41 55.99456 75.19305 34694 ft 456 kts 114°
2026-05-01 14:41 55.97425 75.30033 34695 ft 456 kts 114°
2026-05-01 14:42 55.95380 75.40752 34699 ft 457 kts 114°
2026-05-01 14:42 55.93316 75.51474 34701 ft 457 kts 115°
2026-05-01 14:43 55.91240 75.62215 34710 ft 458 kts 115°
2026-05-01 14:43 55.89168 75.72880 34715 ft 458 kts 115°
2026-05-01 14:44 55.87082 75.83595 34716 ft 459 kts 115°
2026-05-01 14:44 55.83915 75.99735 34723 ft 460 kts 115°
2026-05-01 14:45 55.80720 76.15832 34733 ft 461 kts 115°
2026-05-01 14:46 55.78578 76.26572 34742 ft 461 kts 115°
2026-05-01 14:46 55.75362 76.42670 34752 ft 461 kts 115°
2026-05-01 14:47 55.73193 76.53398 34759 ft 461 kts 115°
2026-05-01 14:48 55.69922 76.69441 34772 ft 461 kts 115°
2026-05-01 14:48 55.66650 76.85396 34783 ft 461 kts 115°
2026-05-01 14:49 55.62231 77.06693 34797 ft 461 kts 115°
2026-05-01 14:50 55.57786 77.27945 34803 ft 460 kts 115°
2026-05-01 14:51 55.54422 77.43835 34807 ft 460 kts 115°
2026-05-01 14:52 55.51037 77.59704 34820 ft 460 kts 115°
2026-05-01 14:53 55.47636 77.75561 34826 ft 461 kts 115°
2026-05-01 14:53 55.45356 77.86108 34828 ft 461 kts 115°
2026-05-01 14:54 55.43087 77.96589 34829 ft 461 kts 115°
2026-05-01 14:54 55.40791 78.07132 34825 ft 461 kts 115°
2026-05-01 14:55 55.38475 78.17655 34839 ft 461 kts 115°
2026-05-01 14:55 55.36183 78.28201 34833 ft 463 kts 111°
2026-05-01 14:56 55.34983 78.39400 34843 ft 469 kts 101°
2026-05-01 14:56 55.34090 78.50730 34852 ft 468 kts 102°
2026-05-01 14:57 55.33329 78.60150 34853 ft 468 kts 102°
2026-05-01 14:57 55.31774 78.78969 34788 ft 468 kts 102°
2026-05-01 14:58 55.31454 78.82788 34615 ft 467 kts 102°
2026-05-01 14:58 55.30980 78.88441 34374 ft 467 kts 102°
2026-05-01 14:58 55.30508 78.94066 34135 ft 466 kts 102°
2026-05-01 14:58 55.30036 78.99623 33900 ft 466 kts 102°
2026-05-01 14:59 55.29557 79.05246 33635 ft 466 kts 102°
2026-05-01 14:59 55.29077 79.10868 33369 ft 466 kts 102°
2026-05-01 14:59 55.28595 79.16495 33022 ft 466 kts 102°
2026-05-01 14:59 55.28110 79.22157 31999 ft 470 kts 103°
2026-05-01 15:00 55.27153 79.33300 30158 ft 461 kts 103°
2026-05-01 15:00 55.26663 79.38891 29047 ft 467 kts 103°
2026-05-01 15:00 55.26163 79.44526 27978 ft 469 kts 103°
2026-05-01 15:01 55.25657 79.50201 27183 ft 473 kts 103°
2026-05-01 15:01 55.25144 79.55904 26449 ft 475 kts 103°
2026-05-01 15:01 55.24630 79.61627 25776 ft 476 kts 103°
2026-05-01 15:01 55.24113 79.67377 25122 ft 478 kts 103°
2026-05-01 15:02 55.23596 79.73125 24528 ft 479 kts 103°
2026-05-01 15:02 55.23251 79.76944 24129 ft 479 kts 103°
2026-05-01 15:02 55.22553 79.84635 23358 ft 475 kts 103°
2026-05-01 15:02 55.22039 79.90253 22690 ft 472 kts 103°
2026-05-01 15:03 55.21517 79.95908 22013 ft 468 kts 103°
2026-05-01 15:03 55.20996 80.01515 21377 ft 465 kts 103°
2026-05-01 15:03 55.20476 80.07085 20739 ft 462 kts 103°
2026-05-01 15:03 55.19955 80.12623 20121 ft 459 kts 103°
2026-05-01 15:04 55.19433 80.18117 19510 ft 457 kts 103°
2026-05-01 15:04 55.18911 80.23578 19037 ft 454 kts 102°
2026-05-01 15:04 55.18386 80.29024 18853 ft 454 kts 103°
2026-05-01 15:04 55.17859 80.34476 18898 ft 455 kts 102°
2026-05-01 15:05 55.17336 80.39921 18898 ft 455 kts 102°
2026-05-01 15:05 55.16810 80.45389 18904 ft 455 kts 102°
2026-05-01 15:05 55.16282 80.50858 18901 ft 456 kts 102°
2026-05-01 15:05 55.15752 80.56312 18903 ft 455 kts 103°
2026-05-01 15:06 55.15230 80.61653 18904 ft 434 kts 103°
2026-05-01 15:06 55.14715 80.66885 18908 ft 444 kts 103°
2026-05-01 15:06 55.14177 80.72264 18908 ft 452 kts 103°
2026-05-01 15:06 55.13633 80.77696 18910 ft 455 kts 103°
2026-05-01 15:07 55.13087 80.83147 18912 ft 456 kts 103°
2026-05-01 15:07 55.12545 80.88530 18911 ft 456 kts 103°
2026-05-01 15:07 55.11976 80.93961 18911 ft 455 kts 105°
2026-05-01 15:07 55.11031 80.99221 18916 ft 451 kts 116°
2026-05-01 15:08 55.09730 81.04204 18922 ft 450 kts 118°
2026-05-01 15:08 55.08413 81.09162 18918 ft 450 kts 118°
2026-05-01 15:08 55.07097 81.14110 18923 ft 450 kts 118°
2026-05-01 15:08 55.05781 81.19060 18924 ft 450 kts 118°
2026-05-01 15:09 55.04464 81.24006 18926 ft 448 kts 118°
2026-05-01 15:09 55.03184 81.28818 18923 ft 425 kts 118°
2026-05-01 15:09 55.01979 81.33346 18884 ft 401 kts 118°
2026-05-01 15:09 55.00827 81.37665 18600 ft 388 kts 118°
2026-05-01 15:10 54.99693 81.41886 17986 ft 380 kts 119°
2026-05-01 15:10 54.97557 81.49817 16648 ft 346 kts 119°
2026-05-01 15:10 54.96552 81.53537 15960 ft 333 kts 119°
2026-05-01 15:11 54.95576 81.57135 15295 ft 325 kts 119°
2026-05-01 15:11 54.93642 81.64221 14012 ft 328 kts 119°
2026-05-01 15:11 54.92812 81.67904 13332 ft 329 kts 106°
2026-05-01 15:12 54.92584 81.71846 12629 ft 328 kts 91°
2026-05-01 15:12 54.92686 81.79567 11275 ft 311 kts 92°
2026-05-01 15:12 54.92727 81.83284 10554 ft 305 kts 92°
2026-05-01 15:13 54.93298 81.93943 8322 ft 295 kts 60°
2026-05-01 15:14 54.96686 81.97072 7355 ft 288 kts 359°
2026-05-01 15:14 54.98684 81.97039 6934 ft 289 kts 358°
2026-05-01 15:14 55.02699 81.97298 6156 ft 287 kts 15°
2026-05-01 15:15 55.06266 82.00120 5558 ft 281 kts 31°
2026-05-01 15:15 55.09706 82.03325 4966 ft 279 kts 32°
2026-05-01 15:16 55.12483 82.07721 4373 ft 264 kts 64°
2026-05-01 15:16 55.13112 82.13600 3779 ft 242 kts 108°
2026-05-01 15:17 55.11276 82.18184 3336 ft 232 kts 149°
2026-05-01 15:18 55.07019 82.22097 2821 ft 229 kts 153°
2026-05-01 15:18 55.05640 82.23355 2651 ft 219 kts 153°
2026-05-01 15:19 55.01989 82.26682 2227 ft 182 kts 153°
2026-05-01 15:19 54.99772 82.28695 2058 ft 180 kts 152°
2026-05-01 15:19 54.98745 82.30063 1994 ft 189 kts 130°
2026-05-01 15:20 54.98398 82.34243 2007 ft 167 kts 88°
2026-05-01 15:20 54.98578 82.36161 2002 ft 153 kts 89°
2026-05-01 15:20 54.98743 82.37932 2001 ft 145 kts 89°
2026-05-01 15:21 54.98900 82.39624 2002 ft 139 kts 88°
2026-05-01 15:21 54.99053 82.41278 2000 ft 137 kts 89°
2026-05-01 15:21 54.99204 82.42911 2001 ft 137 kts 89°
2026-05-01 15:21 54.99356 82.44547 2005 ft 136 kts 89°
2026-05-01 15:22 54.99661 82.47846 1956 ft 140 kts 90°
2026-05-01 15:22 54.99816 82.49515 1815 ft 139 kts 90°
2026-05-01 15:22 54.99970 82.51163 1652 ft 137 kts 89°
2026-05-01 15:23 55.00125 82.52784 1486 ft 135 kts 89°
2026-05-01 15:23 55.00278 82.54422 1288 ft 138 kts 86°
2026-05-01 15:23 55.00432 82.56073 1091 ft 139 kts 83°
2026-05-01 15:23 55.00592 82.57718 901 ft 140 kts 83°
2026-05-01 15:24 55.00734 82.59390 718 ft 140 kts 85°
2026-05-01 15:24 55.00879 82.61053 557 ft 139 kts 83°
2026-05-01 15:24 55.01039 82.62710 400 ft 138 kts 82°
2026-05-01 15:24 55.01169 82.64244 375 ft 103 kts 81°
2026-05-01 15:25 55.01255 82.65184 374 ft 61 kts 81°
2026-05-01 15:25 55.01312 82.65823 373 ft 52 kts 81°
2026-05-01 15:25 55.01361 82.66347 374 ft 42 kts 81°
2026-05-01 15:25 55.01405 82.66835 375 ft 40 kts 81°
2026-05-01 15:26 55.01449 82.67309 372 ft 40 kts 81°
2026-05-01 15:26 55.01479 82.67659 372 ft 12 kts 81°
2026-05-01 15:26 55.01457 82.67771 372 ft 10 kts 150°
2026-05-01 15:26 55.01406 82.67756 372 ft 6 kts 210°
2026-05-01 15:27 55.01372 82.67721 373 ft 5 kts 211°
2026-05-01 15:27 55.01344 82.67692 373 ft 4 kts 211°
2026-05-01 15:27 55.01322 82.67670 373 ft 3 kts 211°
2026-05-01 15:28 55.01253 82.67598 373 ft 10 kts 211°
2026-05-01 15:28 55.01196 82.67539 373 ft 9 kts 211°
2026-05-01 15:28 55.01146 82.67487 373 ft 7 kts 211°
2026-05-01 15:29 55.01111 82.67417 373 ft 7 kts 255°
2026-05-01 15:29 55.01104 82.67336 373 ft 6 kts 262°
2026-05-01 15:29 55.01097 82.67153 373 ft 9 kts 263°
2026-05-01 15:30 55.01079 82.66946 373 ft 9 kts 261°
2026-05-01 15:31 55.01092 82.66686 373 ft 4 kts 256°
2026-05-01 15:31 55.01055 82.66544 373 ft 5 kts 226°
2026-05-01 15:32 55.00997 82.66534 373 ft 4 kts 169°
2026-05-01 15:32 55.00974 82.66541 373 ft 1 kts 169°
2026-05-01 15:33 55.00963 82.66544 373 ft 1 kts 170°
2026-05-01 15:34 55.00961 82.66545 373 ft 0 kts 170°